ISS (ZARYA) 1 25544U 98067A 26264.49719541 .00007274 00000+0 13903-3 0 9998 2 25544 51.6310 183.4357 0004787 164.7753 195.3381 15.49212079586681 POISK 1 36086U 09060A 26264.49719541 .00007274 00000+0 13903-3 0 9996 2 36086 51.6310 183.4357 0004787 164.7753 195.3381 15.49212079586943 CSS (TIANHE) 1 48274U 21035A 26263.98635566 .00014007 00000+0 17119-3 0 9996 2 48274 41.4678 100.3250 0002511 293.9975 66.0601 15.60145341308124 ISS (NAUKA) 1 49044U 21066A 26264.49719541 .00007274 00000+0 13903-3 0 9994 2 49044 51.6310 183.4357 0004787 164.7753 195.3381 15.49212079586985 FREGAT DEB 1 49271U 11037PF 26263.64098986 .00010998 00000+0 15344-1 0 9998 2 49271 51.6476 74.3270 0944527 135.0086 233.1349 12.44582625236927 CSS (WENTIAN) 1 53239U 22085A 26263.98635566 .00014007 00000+0 17119-3 0 9999 2 53239 41.4678 100.3250 0002511 293.9975 66.0601 15.60145341288230 CSS (MENGTIAN) 1 54216U 22143A 26263.98635551 .00014195 00000+0 17343-3 0 9991 2 54216 41.4678 100.3250 0002514 294.0334 66.0242 15.60145809308109 HRC MONOBLOCK CAMERA 1 66052U 98067XR 26264.08199002 .00242982 34945-4 53832-3 0 9998 2 66052 51.6128 139.7991 0005067 192.5430 167.5454 15.97476079 53190 SZ-21 MODULE 1 66515U 25246C 26264.17550215 .00062202 00000+0 24191-3 0 9999 2 66515 41.4697 65.5237 0011295 341.6377 18.4062 15.86081573 48932 DUPLEX 1 66906U 98067XS 26263.44528220 .00047677 00000+0 38810-3 0 9996 2 66906 51.6251 165.8431 0004469 164.3050 195.8086 15.70157063 45583 KNACKSAT-2 1 67683U 98067XZ 26264.16486015 .00057537 00000+0 47720-3 0 9990 2 67683 51.6241 168.4295 0008318 189.2772 170.8072 15.69595208 35308 GXIBA-1 1 67685U 98067YB 26262.48015762 .00085832 00000+0 59955-3 0 9994 2 67685 51.6228 174.3941 0008976 180.7732 179.3254 15.73504864 35074 UITMSAT-2 1 67686U 98067YC 26264.12690017 .00196910 00000+0 74532-3 0 9998 2 67686 51.6200 159.8195 0008135 178.2312 181.8722 15.86539755 35414 LEOPARD 1 67687U 98067YD 26264.29679192 .00148296 00000+0 92190-3 0 9992 2 67687 51.6236 165.5605 0008687 177.0921 183.0131 15.75954770 35277 HMU-SAT2 1 67688U 98067YE 26264.44350388 .00133201 00000+0 70230-3 0 9994 2 67688 51.6251 161.2480 0007983 171.3527 188.7613 15.79699836 35344 CREW DRAGON 12 1 67796U 26031A 26264.49719541 .00007274 00000+0 13903-3 0 9995 2 67796 51.6310 183.4357 0004787 164.7753 195.3381 15.49212079587115 CYGNUS NG-24 1 68689U 26079A 26264.49719541 .00007274 00000+0 13903-3 0 9999 2 68689 51.6310 183.4357 0004787 164.7753 195.3381 15.49212079587139 PROGRESS-MS 34 1 68837U 26093A 26264.49719541 .00007274 00000+0 13903-3 0 9990 2 68837 51.6310 183.4357 0004787 164.7753 195.3381 15.49212079587156 TIANZHOU-10 1 69049U 26102A 26263.98635551 .00014195 00000+0 17343-3 0 9990 2 69049 41.4678 100.3250 0002514 294.0334 66.0242 15.60145809309054 SHENZHOU-23 (SZ-23) 1 69180U 26113A 26263.98635551 .00014195 00000+0 17343-3 0 9998 2 69180 41.4678 100.3250 0002514 294.0334 66.0242 15.60145809307924